owner,sensor,date,latitude,longitude,vertical_datum,wind_speed,wind_to_direction,wind_speed_of_gust,qcFlag 
TABS,ioos:station:wmo:42043:1,2009-04-01T00:00:00Z,28.9818,-94.9186,4.0,7.117197482,2.576757455,9.47,'11111222,11111222,11111222' 
TABS,ioos:station:wmo:42043:1,2009-04-01T00:30:00Z,28.9818,-94.9186,4.0,6.420101245,3.214264849,8.19,'11111222,11111222,11111222' 
TABS,ioos:station:wmo:42043:1,2009-04-01T01:00:00Z,28.9818,-94.9186,4.0,6.71315872,10.99166867,8.38,'11111222,11111222,11111222' 
TABS,ioos:station:wmo:42043:1,2009-04-01T01:30:00Z,28.9818,-94.9186,4.0,6.871630083,18.40832819,8.59,'11111222,11111222,11111222' 
TABS,ioos:station:wmo:42043:1,2009-04-01T02:00:00Z,28.9818,-94.9186,4.0,6.781917133,19.82405606,8.42,'11111222,11111222,11111222' 
TABS,ioos:station:wmo:42043:1,2009-04-01T02:30:00Z,28.9818,-94.9186,4.0,7.027268317,24.19401981,8.62,'11111222,11111222,11111222' 
TABS,ioos:station:wmo:42043:1,2009-04-01T03:00:00Z,28.9818,-94.9186,4.0,6.656763478,18.84297085,8.29,'11111222,11111222,11111222' 
TABS,ioos:station:wmo:42043:1,2009-04-01T03:30:00Z,28.9818,-94.9186,4.0,6.078453751,19.20971915,7.42,'11111222,11111222,11111222' 
TABS,ioos:station:wmo:42043:1,2009-04-01T04:00:00Z,28.9818,-94.9186,4.0,6.466219916,22.36059378,8.16,'11111222,11111222,11111222' 
TABS,ioos:station:wmo:42043:1,2009-04-01T04:30:00Z,28.9818,-94.9186,4.0,6.040347672,23.72144543,7.65,'11111222,11111222,11111222' 
TABS,ioos:station:wmo:42043:1,2009-04-01T05:00:00Z,28.9818,-94.9186,4.0,7.602762656,26.22774928,10.01,'11111222,11111222,11111222' 
TABS,ioos:station:wmo:42043:1,2009-04-01T05:30:00Z,28.9818,-94.9186,4.0,7.827930761,17.39307102,9.93,'11111222,11111222,11111222' 
TABS,ioos:station:wmo:42043:1,2009-04-01T06:00:00Z,28.9818,-94.9186,4.0,7.553522357,26.83615914,9.55,'11111222,11111222,11111222' 
TABS,ioos:station:wmo:42043:1,2009-04-01T06:30:00Z,28.9818,-94.9186,4.0,7.141939512,33.28927156,9.13,'11111222,11111222,11111222' 
TABS,ioos:station:wmo:42043:1,2009-04-01T07:00:00Z,28.9818,-94.9186,4.0,8.342781311,41.79292433,10.31,'11111222,11111222,11111222' 
TABS,ioos:station:wmo:42043:1,2009-04-01T07:30:00Z,28.9818,-94.9186,4.0,9.636000208,51.10770835,12.46,'11111222,11111222,11111222' 
TABS,ioos:station:wmo:42043:1,2009-04-01T08:00:00Z,28.9818,-94.9186,4.0,9.322108131,55.79818786,11.94,'11111222,11111222,11111222' 
TABS,ioos:station:wmo:42043:1,2009-04-01T08:30:00Z,28.9818,-94.9186,4.0,9.686278955,59.19820513,11.87,'11111222,11111222,11111222' 
TABS,ioos:station:wmo:42043:1,2009-04-01T09:00:00Z,28.9818,-94.9186,4.0,8.799119274,66.34788569,11.18,'11111222,11111222,11111222' 
TABS,ioos:station:wmo:42043:1,2009-04-01T09:30:00Z,28.9818,-94.9186,4.0,9.881072816,76.30089411,11.99,'11111222,11111222,11111222' 
TABS,ioos:station:wmo:42043:1,2009-04-01T10:00:00Z,28.9818,-94.9186,4.0,8.931584406,78.11094884,11.18,'11111222,11111222,11111222' 
TABS,ioos:station:wmo:42043:1,2009-04-01T10:30:00Z,28.9818,-94.9186,4.0,8.966214363,81.59838272,11.14,'11111222,11111222,11111222' 
TABS,ioos:station:wmo:42043:1,2009-04-01T11:00:00Z,28.9818,-94.9186,4.0,8.235417415,81.26930571,10.44,'11111222,11111222,11111222' 
TABS,ioos:station:wmo:42043:1,2009-04-01T11:30:00Z,28.9818,-94.9186,4.0,9.186800313,83.62496555,11.18,'11111222,11111222,11111222' 
TABS,ioos:station:wmo:42043:1,2009-04-01T12:00:00Z,28.9818,-94.9186,4.0,9.108814412,84.70835037,11.57,'11111222,11111222,11111222' 
TABS,ioos:station:wmo:42043:1,2009-04-01T12:30:00Z,28.9818,-94.9186,4.0,8.750502843,85.21419826,11.57,'11111222,11111222,11111222' 
TABS,ioos:station:wmo:42043:1,2009-04-01T13:00:00Z,28.9818,-94.9186,4.0,8.529067944,86.167639,10.41,'11111222,11111222,11111222' 
TABS,ioos:station:wmo:42043:1,2009-04-01T13:30:00Z,28.9818,-94.9186,4.0,9.012102973,94.83796767,11.11,'11111222,11111222,11111222' 
TABS,ioos:station:wmo:42043:1,2009-04-01T14:00:00Z,28.9818,-94.9186,4.0,9.252999514,108.7877903,11.77,'11111222,11111222,11111222' 
TABS,ioos:station:wmo:42043:1,2009-04-01T14:30:00Z,28.9818,-94.9186,4.0,8.7692417,112.5297662,11.49,'11111222,11111222,11111222' 
TABS,ioos:station:wmo:42043:1,2009-04-01T15:00:00Z,28.9818,-94.9186,4.0,8.322337412,109.8070241,10.28,'11111222,11111222,11111222' 
TABS,ioos:station:wmo:42043:1,2009-04-01T15:30:00Z,28.9818,-94.9186,4.0,7.429414513,120.6731324,9.4,'11111222,11111222,11111222' 
TABS,ioos:station:wmo:42043:1,2009-04-01T16:00:00Z,28.9818,-94.9186,4.0,6.901920023,122.5161055,8.92,'11111222,11111222,11111222' 
TABS,ioos:station:wmo:42043:1,2009-04-01T16:30:00Z,28.9818,-94.9186,4.0,6.74004451,125.4589599,8.42,'11111222,11111222,11111222' 
TABS,ioos:station:wmo:42043:1,2009-04-01T17:00:00Z,28.9818,-94.9186,4.0,6.452015189,126.7459084,8.26,'11111222,11111222,11111222' 
TABS,ioos:station:wmo:42043:1,2009-04-01T17:30:00Z,28.9818,-94.9186,4.0,6.251799741,125.4954008,7.72,'11111222,11111222,11111222' 
TABS,ioos:station:wmo:42043:1,2009-04-01T18:00:00Z,28.9818,-94.9186,4.0,6.928102193,129.9647295,8.23,'11111222,11111222,11111222' 
TABS,ioos:station:wmo:42043:1,2009-04-01T18:30:00Z,28.9818,-94.9186,4.0,7.508029036,130.8416616,9.6,'11111222,11111222,11111222' 
TABS,ioos:station:wmo:42043:1,2009-04-01T19:00:00Z,28.9818,-94.9186,4.0,7.851751397,136.5484698,9.76,'11111222,11111222,11111222' 
TABS,ioos:station:wmo:42043:1,2009-04-01T19:30:00Z,28.9818,-94.9186,4.0,7.243403896,137.9660602,9.19,'11111222,11111222,11111222' 
TABS,ioos:station:wmo:42043:1,2009-04-01T20:00:00Z,28.9818,-94.9186,4.0,7.801442174,125.7685288,9.91,'11111222,11111222,11111222' 
TABS,ioos:station:wmo:42043:1,2009-04-01T20:30:00Z,28.9818,-94.9186,4.0,7.543606565,137.2565756,9.69,'11111222,11111222,11111222' 
TABS,ioos:station:wmo:42043:1,2009-04-01T21:00:00Z,28.9818,-94.9186,4.0,7.817397265,138.8902242,10.01,'11111222,11111222,11111222' 
TABS,ioos:station:wmo:42043:1,2009-04-01T21:30:00Z,28.9818,-94.9186,4.0,7.705329325,137.0513493,9.59,'11111222,11111222,11111222' 
TABS,ioos:station:wmo:42043:1,2009-04-01T22:00:00Z,28.9818,-94.9186,4.0,7.658492019,138.5469429,9.61,'11111222,11111222,11111222' 
TABS,ioos:station:wmo:42043:1,2009-04-01T22:30:00Z,28.9818,-94.9186,4.0,5.958137293,137.1767749,7.34,'11111222,11111222,11111222' 
TABS,ioos:station:wmo:42043:1,2009-04-01T23:00:00Z,28.9818,-94.9186,4.0,6.521732899,133.5092256,8.0,'11111222,11111222,11111222' 
TABS,ioos:station:wmo:42043:1,2009-04-01T23:30:00Z,28.9818,-94.9186,4.0,7.071421356,131.3310702,8.35,'11111222,11111222,11111222' 
TABS,ioos:station:wmo:42043:1,2009-04-02T00:00:00Z,28.9818,-94.9186,4.0,6.595217965,128.6601388,8.32,'11111222,11111222,11111222' 
TABS,ioos:station:wmo:42043:1,2009-04-02T00:30:00Z,28.9818,-94.9186,4.0,5.74533724,122.4179971,7.15,'11111222,11111222,11111222' 
TABS,ioos:station:wmo:42043:1,2009-04-02T01:00:00Z,28.9818,-94.9186,4.0,3.332821627,119.8731721,4.34,'11111222,11111222,11111222' 
TABS,ioos:station:wmo:42043:1,2009-04-02T01:30:00Z,28.9818,-94.9186,4.0,2.127768784,105.5389096,2.71,'11111222,11111222,11111222' 
TABS,ioos:station:wmo:42043:1,2009-04-02T02:00:00Z,28.9818,-94.9186,4.0,2.040245083,102.7424198,2.88,'11111222,11111222,11111222' 
TABS,ioos:station:wmo:42043:1,2009-04-02T02:30:00Z,28.9818,-94.9186,4.0,3.085854825,99.89006472,4.49,'11111222,11111222,11111222' 
TABS,ioos:station:wmo:42043:1,2009-04-02T03:00:00Z,28.9818,-94.9186,4.0,4.171678319,100.6369254,5.4,'11111222,11111222,11111222' 
TABS,ioos:station:wmo:42043:1,2009-04-02T03:30:00Z,28.9818,-94.9186,4.0,4.532129742,114.9256074,5.75,'11111222,11111222,11111222' 
TABS,ioos:station:wmo:42043:1,2009-04-02T04:00:00Z,28.9818,-94.9186,4.0,6.580486304,132.9065687,9.73,'11111222,11111222,11111222' 
TABS,ioos:station:wmo:42043:1,2009-04-02T04:30:00Z,28.9818,-94.9186,4.0,7.664000261,137.2740178,9.76,'11111222,11111222,11111222' 
TABS,ioos:station:wmo:42043:1,2009-04-02T05:00:00Z,28.9818,-94.9186,4.0,6.337893972,139.9285122,8.99,'11111222,11111222,11111222' 
TABS,ioos:station:wmo:42043:1,2009-04-02T05:30:00Z,28.9818,-94.9186,4.0,7.039268428,146.6488445,8.78,'11111222,11111222,11111222' 
TABS,ioos:station:wmo:42043:1,2009-04-02T06:00:00Z,28.9818,-94.9186,4.0,5.388144393,144.7469284,7.34,'11111222,11111222,11111222' 
TABS,ioos:station:wmo:42043:1,2009-04-02T06:30:00Z,28.9818,-94.9186,4.0,2.508904143,63.74098093,3.31,'11111222,11111222,11111222' 
TABS,ioos:station:wmo:42043:1,2009-04-02T07:00:00Z,28.9818,-94.9186,4.0,2.081657993,157.9944081,6.67,'11111222,11111222,11111222' 
TABS,ioos:station:wmo:42043:1,2009-04-02T07:30:00Z,28.9818,-94.9186,4.0,1.073359213,303.9860876,2.47,'11111222,11111222,11111222' 
TABS,ioos:station:wmo:42043:1,2009-04-02T08:00:00Z,28.9818,-94.9186,4.0,2.830282671,198.1150321,5.04,'11111222,11111222,11111222' 
TABS,ioos:station:wmo:42043:1,2009-04-02T08:30:00Z,28.9818,-94.9186,4.0,2.716652352,184.0106858,3.69,'11111222,11111222,11111222' 
TABS,ioos:station:wmo:42043:1,2009-04-02T09:00:00Z,28.9818,-94.9186,4.0,5.319135268,220.5780433,7.24,'11111222,11111222,11111222' 
TABS,ioos:station:wmo:42043:1,2009-04-02T09:30:00Z,28.9818,-94.9186,4.0,7.153132181,226.9828422,10.94,'11111222,11111222,11111222' 
TABS,ioos:station:wmo:42043:1,2009-04-02T10:00:00Z,28.9818,-94.9186,4.0,7.188685554,204.1406801,11.82,'11111222,11111222,11111222' 
TABS,ioos:station:wmo:42043:1,2009-04-02T10:30:00Z,28.9818,-94.9186,4.0,4.566070521,206.3968484,5.85,'11111222,11111222,11111222' 
TABS,ioos:station:wmo:42043:1,2009-04-02T11:00:00Z,28.9818,-94.9186,4.0,3.319653596,245.0561531,4.36,'11111222,11111222,11111222' 
TABS,ioos:station:wmo:42043:1,2009-04-02T11:30:00Z,28.9818,-94.9186,4.0,2.086072865,224.4174577,2.97,'11111222,11111222,11111222' 
TABS,ioos:station:wmo:42043:1,2009-04-02T12:00:00Z,28.9818,-94.9186,4.0,3.19882791,204.9629419,4.05,'11111222,11111222,11111222' 
TABS,ioos:station:wmo:42043:1,2009-04-02T12:30:00Z,28.9818,-94.9186,4.0,5.07426842,212.2808039,6.36,'11111222,11111222,11111222' 
TABS,ioos:station:wmo:42043:1,2009-04-02T13:00:00Z,28.9818,-94.9186,4.0,6.554395472,217.4994269,8.64,'11111222,11111222,11111222' 
TABS,ioos:station:wmo:42043:1,2009-04-02T13:30:00Z,28.9818,-94.9186,4.0,6.105341923,234.3314939,8.27,'11111222,11111222,11111222' 
TABS,ioos:station:wmo:42043:1,2009-04-02T14:00:00Z,28.9818,-94.9186,4.0,5.846135476,234.6788722,7.6,'11111222,11111222,11111222' 
TABS,ioos:station:wmo:42043:1,2009-04-02T14:30:00Z,28.9818,-94.9186,4.0,10.18573512,324.1875545,12.72,'11111222,11111222,11111222' 
TABS,ioos:station:wmo:42043:1,2009-04-02T15:00:00Z,28.9818,-94.9186,4.0,9.94336965,314.0219702,13.15,'11111222,11111222,11111222' 
TABS,ioos:station:wmo:42043:1,2009-04-02T15:30:00Z,28.9818,-94.9186,4.0,6.889390394,303.5746595,9.12,'11111222,11111222,11111222' 
TABS,ioos:station:wmo:42043:1,2009-04-02T16:00:00Z,28.9818,-94.9186,4.0,5.02108554,294.4722291,6.42,'11111222,11111222,11111222' 
TABS,ioos:station:wmo:42043:1,2009-04-02T16:30:00Z,28.9818,-94.9186,4.0,4.663153439,274.3044589,6.1,'11111222,11111222,11111222' 
TABS,ioos:station:wmo:42043:1,2009-04-02T17:00:00Z,28.9818,-94.9186,4.0,6.78028023,282.8679104,9.84,'11111222,11111222,11111222' 
TABS,ioos:station:wmo:42043:1,2009-04-02T17:30:00Z,28.9818,-94.9186,4.0,8.704539046,282.1361041,11.23,'11111222,11111222,11111222' 
TABS,ioos:station:wmo:42043:1,2009-04-02T18:00:00Z,28.9818,-94.9186,4.0,7.463095872,291.7871023,10.31,'11111222,11111222,11111222' 
TABS,ioos:station:wmo:42043:1,2009-04-02T18:30:00Z,28.9818,-94.9186,4.0,11.27837311,276.3121266,14.4,'11111222,11111222,11111222' 
TABS,ioos:station:wmo:42043:1,2009-04-02T19:00:00Z,28.9818,-94.9186,4.0,10.71302945,283.6600391,15.56,'11111222,11111222,11111222' 
TABS,ioos:station:wmo:42043:1,2009-04-02T19:30:00Z,28.9818,-94.9186,4.0,10.95270743,285.1908503,14.32,'11111222,11111222,11111222' 
TABS,ioos:station:wmo:42043:1,2009-04-02T20:00:00Z,28.9818,-94.9186,4.0,10.05624184,288.0745605,13.91,'11111222,11111222,11111222' 
TABS,ioos:station:wmo:42043:1,2009-04-02T20:30:00Z,28.9818,-94.9186,4.0,9.696772659,285.3690938,12.14,'11111222,11111222,11111222' 
TABS,ioos:station:wmo:42043:1,2009-04-02T21:00:00Z,28.9818,-94.9186,4.0,10.31411169,289.5416756,14.52,'11111222,11111222,11111222' 
TABS,ioos:station:wmo:42043:1,2009-04-02T21:30:00Z,28.9818,-94.9186,4.0,9.997199608,299.7448117,12.5,'11111222,11111222,11111222' 
TABS,ioos:station:wmo:42043:1,2009-04-02T22:00:00Z,28.9818,-94.9186,4.0,8.327808835,297.3034527,10.6,'11111222,11111222,11111222' 
TABS,ioos:station:wmo:42043:1,2009-04-02T22:30:00Z,28.9818,-94.9186,4.0,9.802372162,298.1858847,12.38,'11111222,11111222,11111222' 
TABS,ioos:station:wmo:42043:1,2009-04-02T23:00:00Z,28.9818,-94.9186,4.0,7.9209911,299.4128488,9.97,'11111222,11111222,11111222' 
TABS,ioos:station:wmo:42043:1,2009-04-02T23:30:00Z,28.9818,-94.9186,4.0,9.56163166,296.1898125,12.24,'11111222,11111222,11111222' 
TABS,ioos:station:wmo:42043:1,2009-04-03T00:00:00Z,28.9818,-94.9186,4.0,9.029728678,299.7448117,11.2,'11111222,11111222,11111222' 
TABS,ioos:station:wmo:42043:1,2009-04-03T00:30:00Z,28.9818,-94.9186,4.0,8.843008538,304.5885293,11.43,'11111222,11111222,11111222' 
TABS,ioos:station:wmo:42043:1,2009-04-03T01:00:00Z,28.9818,-94.9186,4.0,8.180006112,301.9607608,10.18,'11111222,11111222,11111222' 
TABS,ioos:station:wmo:42043:1,2009-04-03T01:30:00Z,28.9818,-94.9186,4.0,9.657603222,299.3253674,12.5,'11111222,11111222,11111222' 
TABS,ioos:station:wmo:42043:1,2009-04-03T02:00:00Z,28.9818,-94.9186,4.0,8.392002145,306.9107759,10.15,'11111222,11111222,11111222' 
TABS,ioos:station:wmo:42043:1,2009-04-03T02:30:00Z,28.9818,-94.9186,4.0,7.848241841,304.9859576,10.1,'11111222,11111222,11111222' 
TABS,ioos:station:wmo:42043:1,2009-04-03T03:00:00Z,28.9818,-94.9186,4.0,7.822148043,316.1394409,9.7,'11111222,11111222,11111222' 
TABS,ioos:station:wmo:42043:1,2009-04-03T03:30:00Z,28.9818,-94.9186,4.0,8.274889727,316.1750253,10.45,'11111222,11111222,11111222' 
TABS,ioos:station:wmo:42043:1,2009-04-03T04:00:00Z,28.9818,-94.9186,4.0,8.068766944,317.5112522,9.94,'11111222,11111222,11111222' 
TABS,ioos:station:wmo:42043:1,2009-04-03T04:30:00Z,28.9818,-94.9186,4.0,7.538653726,317.6341747,9.35,'11111222,11111222,11111222' 
TABS,ioos:station:wmo:42043:1,2009-04-03T05:00:00Z,28.9818,-94.9186,4.0,7.37868552,318.0761639,10.04,'11111222,11111222,11111222' 
TABS,ioos:station:wmo:42043:1,2009-04-03T05:30:00Z,28.9818,-94.9186,4.0,7.527157498,324.1347947,9.52,'11111222,11111222,11111222' 
TABS,ioos:station:wmo:42043:1,2009-04-03T06:00:00Z,28.9818,-94.9186,4.0,7.636229436,328.0581076,9.79,'11111222,11111222,11111222' 
TABS,ioos:station:wmo:42043:1,2009-04-03T06:30:00Z,28.9818,-94.9186,4.0,7.868367048,328.9362003,10.19,'11111222,11111222,11111222' 
TABS,ioos:station:wmo:42043:1,2009-04-03T07:00:00Z,28.9818,-94.9186,4.0,7.830772631,328.6847568,9.9,'11111222,11111222,11111222' 
TABS,ioos:station:wmo:42043:1,2009-04-03T07:30:00Z,28.9818,-94.9186,4.0,8.349299372,337.6122416,10.49,'11111222,11111222,11111222' 
TABS,ioos:station:wmo:42043:1,2009-04-03T08:00:00Z,28.9818,-94.9186,4.0,8.743111574,348.2529131,11.02,'11111222,11111222,11111222' 
TABS,ioos:station:wmo:42043:1,2009-04-03T08:30:00Z,28.9818,-94.9186,4.0,9.672936472,346.610067,11.72,'11111222,11111222,11111222' 
TABS,ioos:station:wmo:42043:1,2009-04-03T09:00:00Z,28.9818,-94.9186,4.0,9.471879433,354.0002963,11.51,'11111222,11111222,11111222' 
TABS,ioos:station:wmo:42043:1,2009-04-03T09:30:00Z,28.9818,-94.9186,4.0,9.369364973,9.894387571,11.28,'11111222,11111222,11111222' 
TABS,ioos:station:wmo:42043:1,2009-04-03T10:00:00Z,28.9818,-94.9186,4.0,9.988653563,17.23743047,12.47,'11111222,11111222,11111222' 
TABS,ioos:station:wmo:42043:1,2009-04-03T10:30:00Z,28.9818,-94.9186,4.0,10.42851859,15.68855715,13.09,'11111222,11111222,11111222' 
TABS,ioos:station:wmo:42043:1,2009-04-03T11:00:00Z,28.9818,-94.9186,4.0,9.027358418,29.46119562,11.71,'11111222,11111222,11111222' 
TABS,ioos:station:wmo:42043:1,2009-04-03T11:30:00Z,28.9818,-94.9186,4.0,9.952336409,39.94531838,12.5,'11111222,11111222,11111222' 
TABS,ioos:station:wmo:42043:1,2009-04-03T12:00:00Z,28.9818,-94.9186,4.0,7.873728469,32.23650071,10.72,'11111222,11111222,11111222' 
TABS,ioos:station:wmo:42043:1,2009-04-03T12:30:00Z,28.9818,-94.9186,4.0,6.746591732,40.37070252,9.17,'11111222,11111222,11111222' 
TABS,ioos:station:wmo:42043:1,2009-04-03T13:00:00Z,28.9818,-94.9186,4.0,5.95,36.86960097,7.82,'11111222,11111222,11111222' 
TABS,ioos:station:wmo:42043:1,2009-04-03T13:30:00Z,28.9818,-94.9186,4.0,5.188679986,37.79720577,6.62,'11111222,11111222,11111222' 
TABS,ioos:station:wmo:42043:1,2009-04-03T14:00:00Z,28.9818,-94.9186,4.0,5.495934861,40.64621966,7.41,'11111222,11111222,11111222' 
TABS,ioos:station:wmo:42043:1,2009-04-03T14:30:00Z,28.9818,-94.9186,4.0,5.311609925,41.79447588,7.01,'11111222,11111222,11111222' 
TABS,ioos:station:wmo:42043:1,2009-04-03T15:00:00Z,28.9818,-94.9186,4.0,4.987744981,41.4233583,6.45,'11111222,11111222,11111222' 
TABS,ioos:station:wmo:42043:1,2009-04-03T15:30:00Z,28.9818,-94.9186,4.0,4.208622102,49.91520753,5.8,'11111222,11111222,11111222' 
TABS,ioos:station:wmo:42043:1,2009-04-03T16:00:00Z,28.9818,-94.9186,4.0,3.940114212,53.56602048,5.63,'11111222,11111222,11111222' 
TABS,ioos:station:wmo:42043:1,2009-04-03T16:30:00Z,28.9818,-94.9186,4.0,3.140254767,64.74024763,4.27,'11111222,11111222,11111222' 
TABS,ioos:station:wmo:42043:1,2009-04-03T17:00:00Z,28.9818,-94.9186,4.0,3.421257079,80.06923272,4.59,'11111222,11111222,11111222' 
TABS,ioos:station:wmo:42043:1,2009-04-03T17:30:00Z,28.9818,-94.9186,4.0,3.614996542,86.98679862,5.2,'11111222,11111222,11111222' 
TABS,ioos:station:wmo:42043:1,2009-04-03T18:00:00Z,28.9818,-94.9186,4.0,2.620877716,119.9892732,4.18,'11111222,11111222,11111222' 
TABS,ioos:station:wmo:42043:1,2009-04-03T18:30:00Z,28.9818,-94.9186,4.0,2.271145086,136.9629499,3.56,'11111222,11111222,11111222' 
TABS,ioos:station:wmo:42043:1,2009-04-03T19:00:00Z,28.9818,-94.9186,4.0,2.686428856,127.8940217,4.41,'11111222,11111222,11111222' 
TABS,ioos:station:wmo:42043:1,2009-04-03T19:30:00Z,28.9818,-94.9186,4.0,3.267323063,135.9923489,4.54,'11111222,11111222,11111222' 
TABS,ioos:station:wmo:42043:1,2009-04-03T20:00:00Z,28.9818,-94.9186,4.0,3.632698721,129.0788871,4.65,'11111222,11111222,11111222' 
TABS,ioos:station:wmo:42043:1,2009-04-03T20:30:00Z,28.9818,-94.9186,4.0,4.292190583,135.2834879,5.94,'11111222,11111222,11111222' 
TABS,ioos:station:wmo:42043:1,2009-04-03T21:00:00Z,28.9818,-94.9186,4.0,4.627591166,132.8986663,5.88,'11111222,11111222,11111222' 
TABS,ioos:station:wmo:42043:1,2009-04-03T21:30:00Z,28.9818,-94.9186,4.0,4.252023048,126.6815832,5.55,'11111222,11111222,11111222' 
TABS,ioos:station:wmo:42043:1,2009-04-03T22:00:00Z,28.9818,-94.9186,4.0,4.246033443,132.709711,5.42,'11111222,11111222,11111222' 
TABS,ioos:station:wmo:42043:1,2009-04-03T22:30:00Z,28.9818,-94.9186,4.0,4.121577368,138.1474229,5.18,'11111222,11111222,11111222' 
TABS,ioos:station:wmo:42043:1,2009-04-03T23:00:00Z,28.9818,-94.9186,4.0,4.38548743,151.3898177,5.7,'11111222,11111222,11111222' 
TABS,ioos:station:wmo:42043:1,2009-04-03T23:30:00Z,28.9818,-94.9186,4.0,5.176118237,148.4290406,6.71,'11111222,11111222,11111222' 
TABS,ioos:station:wmo:42043:1,2009-04-04T00:00:00Z,28.9818,-94.9186,4.0,5.668509504,150.6315135,6.85,'11111222,11111222,11111222' 
TABS,ioos:station:wmo:42043:1,2009-04-04T00:30:00Z,28.9818,-94.9186,4.0,6.063085023,151.5331131,7.8,'11111222,11111222,11111222' 
TABS,ioos:station:wmo:42043:1,2009-04-04T01:00:00Z,28.9818,-94.9186,4.0,6.139657971,149.1325525,7.63,'11111222,11111222,11111222' 
TABS,ioos:station:wmo:42043:1,2009-04-04T01:30:00Z,28.9818,-94.9186,4.0,5.631846944,147.6929516,6.99,'11111222,11111222,11111222' 
TABS,ioos:station:wmo:42043:1,2009-04-04T02:00:00Z,28.9818,-94.9186,4.0,6.174665983,145.3579559,8.07,'11111222,11111222,11111222' 
TABS,ioos:station:wmo:42043:1,2009-04-04T02:30:00Z,28.9818,-94.9186,4.0,6.434011191,143.0235375,7.88,'11111222,11111222,11111222' 
TABS,ioos:station:wmo:42043:1,2009-04-04T03:00:00Z,28.9818,-94.9186,4.0,6.108559568,151.3374177,7.9,'11111222,11111222,11111222' 
TABS,ioos:station:wmo:42043:1,2009-04-04T03:30:00Z,28.9818,-94.9186,4.0,5.829348163,148.6825419,7.26,'11111222,11111222,11111222' 
TABS,ioos:station:wmo:42043:1,2009-04-04T04:00:00Z,28.9818,-94.9186,4.0,6.439906832,150.4098935,7.69,'11111222,11111222,11111222' 
TABS,ioos:station:wmo:42043:1,2009-04-04T04:30:00Z,28.9818,-94.9186,4.0,6.557263149,152.3801003,8.3,'11111222,11111222,11111222' 
TABS,ioos:station:wmo:42043:1,2009-04-04T05:00:00Z,28.9818,-94.9186,4.0,6.668748008,154.3189876,8.22,'11111222,11111222,11111222' 
TABS,ioos:station:wmo:42043:1,2009-04-04T05:30:00Z,28.9818,-94.9186,4.0,5.623779868,155.0756984,7.03,'11111222,11111222,11111222' 
TABS,ioos:station:wmo:42043:1,2009-04-04T06:00:00Z,28.9818,-94.9186,4.0,5.661810664,153.1184241,7.14,'11111222,11111222,11111222' 
TABS,ioos:station:wmo:42043:1,2009-04-04T06:30:00Z,28.9818,-94.9186,4.0,5.692038299,149.0192634,6.83,'11111222,11111222,11111222' 
TABS,ioos:station:wmo:42043:1,2009-04-04T07:00:00Z,28.9818,-94.9186,4.0,6.115717456,149.3257335,7.6,'11111222,11111222,11111222' 
TABS,ioos:station:wmo:42043:1,2009-04-04T07:30:00Z,28.9818,-94.9186,4.0,5.740531334,149.7725817,8.45,'11111222,11111222,11111222' 
TABS,ioos:station:wmo:42043:1,2009-04-04T08:00:00Z,28.9818,-94.9186,4.0,6.460913248,147.5154911,7.9,'11111222,11111222,11111222' 
TABS,ioos:station:wmo:42043:1,2009-04-04T08:30:00Z,28.9818,-94.9186,4.0,6.724827135,148.4374353,8.41,'11111222,11111222,11111222' 
TABS,ioos:station:wmo:42043:1,2009-04-04T09:00:00Z,28.9818,-94.9186,4.0,7.40800243,151.0132842,9.93,'11111222,11111222,11111222' 
TABS,ioos:station:wmo:42043:1,2009-04-04T09:30:00Z,28.9818,-94.9186,4.0,7.350006803,152.0057424,9.52,'11111222,11111222,11111222' 
TABS,ioos:station:wmo:42043:1,2009-04-04T10:00:00Z,28.9818,-94.9186,4.0,6.43292313,148.9296031,8.45,'11111222,11111222,11111222' 
TABS,ioos:station:wmo:42043:1,2009-04-04T10:30:00Z,28.9818,-94.9186,4.0,6.108780566,149.0686968,7.75,'11111222,11111222,11111222' 
TABS,ioos:station:wmo:42043:1,2009-04-04T11:00:00Z,28.9818,-94.9186,4.0,6.153584321,148.5574769,8.04,'11111222,11111222,11111222' 
TABS,ioos:station:wmo:42043:1,2009-04-04T11:30:00Z,28.9818,-94.9186,4.0,6.422740848,152.5575016,8.56,'11111222,11111222,11111222' 
TABS,ioos:station:wmo:42043:1,2009-04-04T12:00:00Z,28.9818,-94.9186,4.0,6.380031348,151.7481796,8.53,'11111222,11111222,11111222' 
TABS,ioos:station:wmo:42043:1,2009-04-04T12:30:00Z,28.9818,-94.9186,4.0,6.533949801,151.2778439,8.32,'11111222,11111222,11111222' 
TABS,ioos:station:wmo:42043:1,2009-04-04T13:00:00Z,28.9818,-94.9186,4.0,6.417577425,150.3993573,8.46,'11111222,11111222,11111222' 
TABS,ioos:station:wmo:42043:1,2009-04-04T13:30:00Z,28.9818,-94.9186,4.0,5.45446606,144.8533729,7.25,'11111222,11111222,11111222' 
TABS,ioos:station:wmo:42043:1,2009-04-04T14:00:00Z,28.9818,-94.9186,4.0,6.53701002,147.939158,8.06,'11111222,11111222,11111222' 
TABS,ioos:station:wmo:42043:1,2009-04-04T14:30:00Z,28.9818,-94.9186,4.0,5.997007587,147.1846942,7.8,'11111222,11111222,11111222' 
TABS,ioos:station:wmo:42043:1,2009-04-04T15:00:00Z,28.9818,-94.9186,4.0,6.29062795,148.7866014,7.99,'11111222,11111222,11111222' 
TABS,ioos:station:wmo:42043:1,2009-04-04T15:30:00Z,28.9818,-94.9186,4.0,6.999464265,152.7030485,8.39,'11111222,11111222,11111222' 
TABS,ioos:station:wmo:42043:1,2009-04-04T16:00:00Z,28.9818,-94.9186,4.0,5.228049349,155.8374828,6.69,'11111222,11111222,11111222' 
TABS,ioos:station:wmo:42043:1,2009-04-04T16:30:00Z,28.9818,-94.9186,4.0,4.732536318,169.2838974,6.02,'11111222,11111222,11111222' 
TABS,ioos:station:wmo:42043:1,2009-04-04T17:00:00Z,28.9818,-94.9186,4.0,2.932882541,182.5406719,3.71,'11111222,11111222,11111222' 
TABS,ioos:station:wmo:42043:1,2009-04-04T17:30:00Z,28.9818,-94.9186,4.0,3.210685285,162.9762423,4.68,'11111222,11111222,11111222' 
TABS,ioos:station:wmo:42043:1,2009-04-04T18:00:00Z,28.9818,-94.9186,4.0,2.986904752,159.6238229,4.0,'11111222,11111222,11111222' 
TABS,ioos:station:wmo:42043:1,2009-04-04T18:30:00Z,28.9818,-94.9186,4.0,2.070772803,157.2739802,3.02,'11111222,11111222,11111222' 